Location: Zapote
(9.9191°N, 84.0597°W)
Time: 18:05:52
(UTC-06:00)

Transit 2A - Pass Details

Date: 04 March 2021
Orbit: 602 x 957 km, 66.7° (Epoch: 16 April)

Event Time Altitude Azimuth Distance (km) Brightness Sun altitude
Rises 03:34:02 0° 354° (N) 2,853 - -34.0°
Reaches altitude 10° 03:36:24 10° 4° (N) 1,971 - -33.4°
Maximum altitude 03:40:23 33° 69° (ENE) 1,065 - -32.4°
Exits shadow 03:40:56 32° 84° (E) 1,095 7.3 -32.3°
Drops below altitude 10° 03:44:38 10° 134° (SE) 2,103 8.8 -31.4°
Sets 03:47:14 0° 143° (SE) 3,075 9.6 -30.7°
